Powrót do katalogu

IUS R/B(1)

AktywnyHEO
NORAD 19970·ROCKET BODY·🇺🇸 United States

Wystrzelony May 4, 1989 z Cape Canaveral Space Force Station

Loading…

Następne Przeloty (najbliższe 24 godziny)

TLE

ŚwieżeSource: Space-Track

Epoka: Sep 14, 2026, 05:54 UTC

1 19970U 89033C   26257.24611252  .00003061  00000-0  73703-3 0  9997
2 19970  27.8901 137.7530 5889527 339.3142   4.4775  4.19362164508983

Śledź IUS R/B(1) w czasie rzeczywistym z AllMySat

Download on the App Store